This demonstration page uses our WeatherBlox Daily Observations layout. Learn more.

Left ArrowRight Arrow

39.12711, -84.51439

Hourly Observations for June 12, 2021

Temp ( °F °C ) Dew Point ( °F °C ) Humidity (%) Winds ( mph kmh ) Pressure ( in mb ) Visibility ( mi km ) Precip ( " mm )
12:02 am 00:02 Mostly Clear with Mist and Fog 71 21.7 69 20.6 94 94 N N/A 29.81 1009 4 6 N/A
12:53 am 00:53 Partly Cloudy with Mist and Fog 71 21.7 70 21.1 96 96 N N/A 29.81 1010 5 8 N/A
1:27 am 01:27 Mostly Clear with Mist and Fog 71 21.7 69 20.6 94 94 N N/A 29.82 1010 3 4 N/A
1:44 am 01:44 Clear with Mist and Fog 69 20.6 67 19.4 93 93 N N/A 29.79 1009 2 2 N/A
1:53 am 01:53 Clear with Fog 69 20.6 68 20 96 96 N N/A 29.78 1009 1 1 N/A
2:00 am 02:00 Mostly Cloudy with Mist and Fog 69 20.6 68 20 96 96 WNW 5 7 29.79 1009 1 1 N/A
2:04 am 02:04 Mostly Clear with Mist and Fog 70 21.1 69 20.6 97 97 NW 3 6 29.79 1009 1 2 N/A
2:06 am 02:06 Mostly Clear with Mist and Fog 70 21.1 69 20.6 97 97 NW 3 6 29.80 1009 3 5 N/A
2:26 am 02:26 Partly Cloudy with Mist and Fog 69 20.6 68 20 96 96 N N/A 29.80 1009 2 3 N/A
2:33 am 02:33 Mostly Cloudy with Mist and Fog 69 20.6 68 20 96 96 N N/A 29.80 1009 2 3 N/A
2:45 am 02:45 Mostly Cloudy with Fog 69 20.6 68 20 96 96 S 3 6 29.80 1009 0 0 N/A
2:53 am 02:53 Mostly Cloudy with Fog 68 20 67 19.4 96 96 SSW 3 6 29.79 1009 0 0 N/A
3:53 am 03:53 Mostly Cloudy with Fog 69 20.6 68 20 96 96 NNW 3 6 29.80 1009 0 0 N/A
4:36 am 04:36 Mostly Cloudy with Fog 69 20.6 68 20 96 96 N N/A 29.82 1010 N/A N/A
4:53 am 04:53 Mostly Cloudy with Fog 69 20.6 68 20 96 96 N N/A 29.81 1009 N/A N/A
5:00 am 05:00 Mostly Cloudy with Fog 69 20.6 68 20 96 96 N N/A 29.81 1009 0 0 N/A
5:53 am 05:53 Mostly Cloudy with Fog 69 20.6 68 20 96 96 N N/A 29.82 1010 0 0 N/A
6:27 am 06:27 Mostly Cloudy with Fog 69 20.6 69 20.6 100 100 N N/A 29.84 1010 N/A N/A
6:53 am 06:53 Mostly Cloudy with Fog 69 20.6 69 20.6 100 100 N N/A 29.85 1011 N/A N/A
7:21 am 07:21 Cloudy with Mist and Fog 70 21.1 69 20.6 97 97 N N/A 29.85 1011 2 3 N/A
7:29 am 07:29 Cloudy with Mist and Fog 70 21.1 69 20.6 97 97 N N/A 29.85 1011 1 1 N/A
7:39 am 07:39 Mostly Cloudy with Fog 70 21.1 69 20.6 97 97 N N/A 29.85 1011 0 0 N/A
7:53 am 07:53 Mostly Cloudy with Fog 70 21.1 69 20.6 97 97 N N/A 29.85 1011 0 0 N/A
8:53 am 08:53 Cloudy with Mist and Fog 71 21.7 71 21.7 100 100 N N/A 29.85 1011 1 2 N/A
9:06 am 09:06 Cloudy with Mist and Fog 73 22.8 72 22.2 96 96 N N/A 29.84 1011 1 1 N/A
9:30 am 09:30 Partly Cloudy with Mist and Fog 75 23.9 72 22.2 90 90 SW 3 6 29.84 1011 3 5 N/A
9:53 am 09:53 Sunny 79 26.1 71 21.7 77 77 N N/A 29.85 1011 8 13 N/A
10:53 am 10:53 Sunny 82 27.8 72 22.2 72 72 VRB 3 6 29.84 1011 10 16 N/A
11:53 am 11:53 Sunny 85 29.4 71 21.7 63 63 VRB 6 9 29.84 1011 10 16 N/A
12:53 pm 12:53 Mostly Sunny 87 30.6 70 21.1 57 57 VRB 5 7 29.84 1010 10 16 N/A
1:53 pm 13:53 Mostly Sunny 89 31.7 69 20.6 52 52 N N/A 29.82 1010 10 16 N/A
2:53 pm 14:53 Mostly Cloudy 89 31.7 69 20.6 52 52 NNE 5 7 29.83 1010 10 16 N/A
3:53 pm 15:53 Partly Cloudy 90 32.2 68 20 48 48 E 5 7 29.80 1009 10 16 N/A
4:53 pm 16:53 Sunny 88 31.1 66 18.9 48 48 N N/A 29.80 1009 10 16 N/A
5:53 pm 17:53 Mostly Sunny 89 31.7 69 20.6 52 52 ENE 5 7 29.79 1009 10 16 N/A
6:53 pm 18:53 Sunny 84 28.9 75 23.9 74 74 N N/A 29.79 1009 10 16 N/A
7:53 pm 19:53 Sunny 81 27.2 75 23.9 82 82 SSW 5 7 29.80 1009 10 16 N/A
8:53 pm 20:53 Sunny 81 27.2 71 21.7 72 72 N N/A 29.81 1010 10 16 N/A
9:53 pm 21:53 Clear 77 25 72 22.2 85 85 N N/A 29.82 1010 10 16 N/A
10:53 pm 22:53 Clear 75 23.9 71 21.7 88 88 N N/A 29.85 1011 10 16 N/A
11:53 pm 23:53 Clear 73 22.8 71 21.7 94 94 N N/A 29.87 1011 9 14 N/A

Powered by AerisWeather